timestamp,surface_pressure_avg,surface_temp_avg,battery_voltage,lat,long
2021-10-14 00:09:01+00:00,246.9448,10.8,12.73,47.84626,-54.09684
2021-10-14 00:19:01+00:00,246.9347,10.8,12.73,47.84626,-54.09684
2021-10-14 00:29:01+00:00,244.4281,10.8,12.73,47.84626,-54.09684
2021-10-14 00:39:01+00:00,241.6015,10.7,12.73,47.84626,-54.09684
2021-10-14 00:49:01+00:00,240.3681,10.7,12.73,47.84626,-54.09684
2021-10-14 00:59:01+00:00,240.1614,10.72,12.73,47.84626,-54.09684
2021-10-14 01:09:01+00:00,237.3648,10.7,12.73,47.84626,-54.09684
2021-10-14 01:19:00+00:00,235.1231,10.7,12.73,47.84626,-54.09684
2021-10-14 01:29:00+00:00,236.198,10.7,12.73,47.84626,-54.09684
2021-10-14 01:39:00+00:00,237.8682,10.71,12.73,47.84626,-54.09684
2021-10-14 01:49:00+00:00,237.688,10.7,12.73,47.84626,-54.09684
2021-10-14 01:59:00+00:00,237.1597,10.7,12.73,47.84626,-54.09684
2021-10-14 02:09:00+00:00,239.9514,10.7,12.73,47.84626,-54.09684
2021-10-14 02:19:01+00:00,244.1848,10.7,12.65,47.84626,-54.09684
2021-10-14 02:29:01+00:00,246.4415,10.59,12.65,47.84626,-54.09684
2021-10-14 02:39:01+00:00,250.0331,10.5,12.65,47.84626,-54.09684
2021-10-14 02:49:01+00:00,255.8131,10.4,12.65,47.84626,-54.09684
2021-10-14 02:59:01+00:00,261.7097,10.39,12.65,47.84626,-54.09684
2021-10-14 03:09:01+00:00,266.0131,10.35,12.65,47.84626,-54.09684
2021-10-14 03:19:01+00:00,271.7614,10.31,12.65,47.84626,-54.09684
2021-10-14 03:29:01+00:00,277.5164,10.34,12.65,47.84626,-54.09684
2021-10-14 03:39:01+00:00,283.3848,10.4,12.65,47.84626,-54.09684
2021-10-14 03:49:01+00:00,288.4714,10.39,12.65,47.84626,-54.09684
2021-10-14 03:59:01+00:00,292.5914,10.37,12.65,47.84626,-54.09684
2021-10-14 04:09:01+00:00,295.2364,10.35,12.65,47.84626,-54.09684
2021-10-14 04:19:01+00:00,299.0532,10.34,12.65,47.84626,-54.09684
2021-10-14 04:29:01+00:00,302.0114,10.34,12.65,47.84626,-54.09684
2021-10-14 04:39:01+00:00,306.4247,10.3,12.65,47.84626,-54.09684
2021-10-14 04:49:01+00:00,309.303,10.31,12.65,47.84626,-54.09684
2021-10-14 04:59:01+00:00,312.3163,10.37,12.65,47.84626,-54.09684
2021-10-14 05:09:01+00:00,312.7362,10.33,12.65,47.84626,-54.09684
2021-10-14 05:19:00+00:00,315.7281,10.3,12.65,47.84626,-54.09684
2021-10-14 05:29:00+00:00,319.013,10.3,12.65,47.84626,-54.09684
2021-10-14 05:39:00+00:00,324.5013,10.3,12.65,47.84626,-54.09684
2021-10-14 05:49:00+00:00,328.3896,10.32,12.65,47.84626,-54.09684
2021-10-14 05:59:00+00:00,330.7246,10.36,12.65,47.84626,-54.09684
2021-10-14 06:09:00+00:00,330.9964,10.39,12.65,47.84626,-54.09684
2021-10-14 06:19:00+00:00,334.593,10.4,12.65,47.84626,-54.09684
2021-10-14 06:29:00+00:00,335.5663,10.3,12.65,47.84626,-54.09684
2021-10-14 06:39:00+00:00,333.1896,10.3,12.65,47.84626,-54.09684
2021-10-14 06:49:00+00:00,330.0831,10.3,12.65,47.84626,-54.09684
2021-10-14 06:59:00+00:00,330.3113,10.3,12.65,47.84626,-54.09684
2021-10-14 07:09:00+00:00,329.4197,10.33,12.65,47.84626,-54.09684
2021-10-14 07:19:01+00:00,323.9747,10.33,12.57,47.84626,-54.09684
2021-10-14 07:29:01+00:00,318.998,10.3,12.57,47.84626,-54.09684
2021-10-14 07:39:01+00:00,317.3729,10.3,12.57,47.84626,-54.09684
2021-10-14 07:49:01+00:00,313.3679,10.29,12.57,47.84626,-54.09684
2021-10-14 07:59:01+00:00,306.5947,10.2,12.57,47.84626,-54.09684
2021-10-14 08:09:01+00:00,301.348,10.12,12.57,47.84626,-54.09684
2021-10-14 08:19:00+00:00,298.4413,10.1,12.57,47.84626,-54.09684
2021-10-14 08:29:00+00:00,290.45799999999997,10.1,12.57,47.84626,-54.09684
2021-10-14 08:39:00+00:00,281.1047,10.1,12.57,47.84626,-54.09684
2021-10-14 08:49:00+00:00,277.3481,10.12,12.57,47.84626,-54.09684
2021-10-14 08:59:00+00:00,274.1664,10.19,12.57,47.84626,-54.09684
2021-10-14 09:09:00+00:00,267.9414,10.1,12.57,47.84626,-54.09684
2021-10-14 09:19:01+00:00,261.5031,10.1,12.57,47.84626,-54.09684
2021-10-14 09:29:01+00:00,257.8531,10.1,12.57,47.84626,-54.09684
2021-10-14 09:39:01+00:00,255.7381,10.1,12.57,47.84626,-54.09684
2021-10-14 09:49:01+00:00,253.9581,10.1,12.57,47.84626,-54.09684
2021-10-14 09:59:01+00:00,251.288,10.1,12.57,47.84626,-54.09684
2021-10-14 10:09:01+00:00,249.3831,10.1,12.57,47.84626,-54.09684
2021-10-14 10:19:01+00:00,247.6331,10.1,12.57,47.84626,-54.09684
2021-10-14 10:29:01+00:00,246.5847,10.16,12.57,47.84626,-54.09684
2021-10-14 10:39:01+00:00,244.6698,10.17,12.57,47.84626,-54.09684
2021-10-14 10:49:01+00:00,242.8932,10.1,12.57,47.84626,-54.09684
2021-10-14 10:59:01+00:00,243.1247,10.1,12.57,47.84626,-54.09684
2021-10-14 11:09:01+00:00,243.648,10.1,12.57,47.84626,-54.09684
2021-10-14 11:19:01+00:00,241.5231,10.1,12.97,47.84626,-54.09684
2021-10-14 11:29:01+00:00,240.2664,10.14,12.97,47.84626,-54.09684
2021-10-14 11:39:01+00:00,241.7581,10.16,12.97,47.84626,-54.09684
2021-10-14 11:49:01+00:00,242.633,10.1,12.97,47.84626,-54.09684
2021-10-14 11:59:01+00:00,242.1915,10.1,12.97,47.84626,-54.09684
2021-10-14 12:09:01+00:00,243.0381,10.1,12.97,47.84626,-54.09684
2021-10-14 12:19:01+00:00,245.1247,10.1,13.68,47.84626,-54.09684
2021-10-14 12:29:01+00:00,244.9798,10.1,13.68,47.84626,-54.09684
2021-10-14 12:39:01+00:00,245.0231,10.1,13.68,47.84626,-54.09684
2021-10-14 12:49:01+00:00,248.1814,10.1,13.68,47.84626,-54.09684
2021-10-14 12:59:01+00:00,250.0881,10.1,13.68,47.84626,-54.09684
2021-10-14 13:09:01+00:00,248.0247,10.1,13.68,47.84626,-54.09684
2021-10-14 13:19:01+00:00,246.3598,10.1,13.37,47.84626,-54.09684
2021-10-14 13:29:01+00:00,247.8181,10.07,13.37,47.84626,-54.09684
2021-10-14 13:39:01+00:00,249.1131,10.02,13.37,47.84626,-54.09684
2021-10-14 13:49:01+00:00,249.1564,10.0,13.37,47.84626,-54.09684
2021-10-14 13:59:01+00:00,251.3214,10.0,13.37,47.84626,-54.09684
2021-10-14 14:09:01+00:00,253.5881,10.0,13.37,47.84626,-54.09684
2021-10-14 14:19:00+00:00,253.2997,10.0,13.53,47.84626,-54.09684
2021-10-14 14:29:00+00:00,254.2148,10.0,13.53,47.84626,-54.09684
2021-10-14 14:39:00+00:00,258.6714,10.0,13.53,47.84626,-54.09684
2021-10-14 14:49:00+00:00,263.3014,10.0,13.53,47.84626,-54.09684
2021-10-14 14:59:00+00:00,264.3148,10.0,13.53,47.84626,-54.09684
2021-10-14 15:09:00+00:00,267.4031,10.0,13.53,47.84626,-54.09684
2021-10-14 15:19:01+00:00,274.2414,10.0,13.92,47.84626,-54.09684
2021-10-14 15:29:01+00:00,281.5597,10.04,13.92,47.84626,-54.09684
2021-10-14 15:39:01+00:00,284.8497,10.0,13.92,47.84626,-54.09684
2021-10-14 15:49:01+00:00,292.313,10.0,13.92,47.84626,-54.09684
2021-10-14 15:59:01+00:00,300.318,10.0,13.92,47.84626,-54.09684
2021-10-14 16:09:01+00:00,306.4397,10.0,13.92,47.84626,-54.09684
2021-10-14 16:19:01+00:00,310.6997,9.9,13.92,47.84626,-54.09684
2021-10-14 16:29:01+00:00,319.8196,9.9,13.92,47.84626,-54.09684
2021-10-14 16:39:01+00:00,326.5563,9.9,13.92,47.84626,-54.09684
2021-10-14 16:49:01+00:00,330.2630000000001,9.98,13.92,47.84626,-54.09684
2021-10-14 16:59:01+00:00,331.2863,10.0,13.92,47.84626,-54.09684
2021-10-14 17:09:01+00:00,335.3096,10.0,13.92,47.84626,-54.09684
2021-10-14 17:19:01+00:00,337.8964,10.0,14.48,47.84626,-54.09684
2021-10-14 17:29:01+00:00,340.2030000000001,10.0,14.48,47.84626,-54.09684
2021-10-14 17:39:01+00:00,343.0479,10.0,14.48,47.84626,-54.09684
2021-10-14 17:49:01+00:00,344.7563,10.0,14.48,47.84626,-54.09684
2021-10-14 17:59:01+00:00,346.7747,10.0,14.48,47.84626,-54.09684
2021-10-14 18:09:01+00:00,352.1964,10.0,14.48,47.84626,-54.09684
2021-10-14 18:19:01+00:00,354.3563,10.0,14.32,47.84626,-54.09684
2021-10-14 18:29:01+00:00,353.36300000000006,10.0,14.32,47.84626,-54.09684
2021-10-14 18:39:01+00:00,353.7563,10.06,14.32,47.84626,-54.09684
2021-10-14 18:49:01+00:00,358.1447,10.05,14.32,47.84626,-54.09684
2021-10-14 18:59:01+00:00,354.4212,10.0,14.32,47.84626,-54.09684
2021-10-14 19:09:01+00:00,351.8129,9.98,14.32,47.84626,-54.09684
2021-10-14 19:19:01+00:00,357.98800000000006,9.9,14.08,47.84626,-54.09684
2021-10-14 19:29:01+00:00,358.9747,9.9,14.08,47.84626,-54.09684
2021-10-14 19:39:01+00:00,352.9463,9.9,14.08,47.84626,-54.09684
2021-10-14 19:49:01+00:00,351.588,9.9,14.08,47.84626,-54.09684
2021-10-14 19:59:01+00:00,352.403,9.9,14.08,47.84626,-54.09684
2021-10-14 20:09:01+00:00,345.62300000000016,9.86,14.08,47.84626,-54.09684
2021-10-14 20:19:01+00:00,338.1747,9.87,13.68,47.84626,-54.09684
2021-10-14 20:29:01+00:00,338.5946,9.83,13.68,47.84626,-54.09684
2021-10-14 20:39:01+00:00,334.2914,9.84,13.68,47.84626,-54.09684
2021-10-14 20:49:01+00:00,323.7996,9.8,13.68,47.84626,-54.09684
2021-10-14 20:59:01+00:00,316.473,9.7,13.68,47.84626,-54.09684
2021-10-14 21:09:01+00:00,313.618,9.6,13.68,47.84626,-54.09684
2021-10-14 21:19:01+00:00,305.508,9.6,13.29,47.84626,-54.09684
2021-10-14 21:29:01+00:00,297.4364,9.68,13.29,47.84626,-54.09684
2021-10-14 21:39:01+00:00,294.773,9.7,13.29,47.84626,-54.09684
2021-10-14 21:49:01+00:00,290.0414,9.6,13.29,47.84626,-54.09684
2021-10-14 21:59:01+00:00,281.9764,9.69,13.29,47.84626,-54.09684
2021-10-14 22:09:01+00:00,279.0863,9.6,13.29,47.84626,-54.09684
2021-10-14 22:19:01+00:00,278.3131,9.59,12.89,47.84626,-54.09684
2021-10-14 22:29:01+00:00,271.4614,9.63,12.89,47.84626,-54.09684
2021-10-14 22:39:01+00:00,265.9481,9.62,12.89,47.84626,-54.09684
2021-10-14 22:49:01+00:00,265.4098,9.6,12.89,47.84626,-54.09684
2021-10-14 22:59:01+00:00,264.2947,9.6,12.89,47.84626,-54.09684
2021-10-14 23:09:01+00:00,259.4531,9.6,12.89,47.84626,-54.09684
2021-10-14 23:19:01+00:00,258.3665,9.5,12.73,47.84626,-54.09684
2021-10-14 23:29:01+00:00,259.5247,9.5,12.73,47.84626,-54.09684
2021-10-14 23:39:01+00:00,256.6064,9.5,12.73,47.84626,-54.09684
2021-10-14 23:49:01+00:00,254.178,9.5,12.73,47.84626,-54.09684
2021-10-14 23:59:01+00:00,253.2481,9.5,12.73,47.84626,-54.09684
